• In Czech Republic
  • List of Countries
  • For 7 days
  • Water Temperature
  • Satellite Maps
  • Weather Map
  • Weather Widgets
  • user-avatar
    Login

    Hourly Weather Shkoder

    Today, 23 July, Sunday

    Time Temperature Precipitation Wind Pressure Humidity
    00:00 +25°C° 0 mm 2 mps 740 mmHg 49%
    01:00 +25°C° 0 mm 2 mps 740 mmHg 48%
    02:00 +25°C° 0 mm 2 mps 740 mmHg 48%
    03:00 +25°C° 0 mm 2 mps 740 mmHg 47%
    04:00 +24°C° 0 mm 2 mps 740 mmHg 47%
    05:00 +26°C° 0 mm 1 mps 740 mmHg 45%
    06:00 +29°C° 0 mm 1 mps 740 mmHg 43%
    07:00 +31°C° 0 mm 1 mps 740 mmHg 41%
    08:00 +32°C° 0 mm 1 mps 740 mmHg 38%
    09:00 +35°C° 0 mm 2 mps 740 mmHg 35%
    10:00 +36°C° 0 mm 2 mps 740 mmHg 32%
    11:00 +37°C° 0 mm 2 mps 740 mmHg 31%
    12:00 +37°C° 0 mm 3 mps 740 mmHg 30%
    13:00 +37°C° 0 mm 2 mps 739 mmHg 31%
    14:00 +37°C° 0 mm 2 mps 739 mmHg 33%
    15:00 +36°C° 0 mm 2 mps 739 mmHg 34%
    16:00 +36°C° 0 mm 2 mps 739 mmHg 36%
    17:00 +34°C° 0 mm 2 mps 739 mmHg 42%
    18:00 +30°C° 0 mm 1 mps 739 mmHg 49%
    19:00 +28°C° 0 mm 1 mps 738 mmHg 56%
    20:00 +27°C° 0 mm 1 mps 739 mmHg 58%
    21:00 +26°C° 0 mm 1 mps 739 mmHg 61%
    22:00 +25°C° 0 mm 1 mps 739 mmHg 64%
    23:00 +25°C° 0 mm 1 mps 739 mmHg 65%

    Tomorrow, 24 July, Monday

    Time Temperature Precipitation Wind Pressure Humidity
    00:00 +24°C° 0 mm 1 mps 739 mmHg 65%
    01:00 +24°C° 0 mm 1 mps 738 mmHg 66%
    02:00 +24°C° 0 mm 1 mps 738 mmHg 66%
    03:00 +24°C° 0 mm 1 mps 738 mmHg 67%
    04:00 +23°C° 0 mm 1 mps 738 mmHg 67%
    05:00 +25°C° 0 mm 1 mps 737 mmHg 61%
    06:00 +28°C° 0 mm 1 mps 737 mmHg 55%
    07:00 +30°C° 0 mm 1 mps 737 mmHg 50%
    08:00 +31°C° 0 mm 1 mps 737 mmHg 45%
    09:00 +34°C° 0 mm 2 mps 737 mmHg 40%
    10:00 +35°C° 0 mm 2 mps 737 mmHg 35%
    11:00 +36°C° 0 mm 2 mps 736 mmHg 32%
    12:00 +36°C° 0 mm 3 mps 736 mmHg 30%
    13:00 +37°C° 0 mm 3 mps 735 mmHg 27%
    14:00 +37°C° 0 mm 3 mps 735 mmHg 28%
    15:00 +36°C° 0 mm 3 mps 734 mmHg 29%
    16:00 +36°C° 0 mm 3 mps 734 mmHg 31%
    17:00 +33°C° 0 mm 3 mps 733 mmHg 37%
    18:00 +30°C° 0 mm 2 mps 733 mmHg 43%
    19:00 +27°C° 0 mm 2 mps 733 mmHg 49%
    20:00 +27°C° 0 mm 2 mps 733 mmHg 50%
    21:00 +26°C° 0 mm 2 mps 733 mmHg 50%
    22:00 +25°C° 0 mm 2 mps 732 mmHg 50%
    23:00 +25°C° 0 mm 2 mps 732 mmHg 51%

    Day after tomorrow, 25 July, Tuesday

    Time Temperature Precipitation Wind Pressure Humidity
    00:00 +24°C° 0 mm 3 mps 732 mmHg 52%
    01:00 +24°C° 0 mm 3 mps 732 mmHg 54%
    02:00 +22°C° 0.1 mm 3 mps 731 mmHg 59%
    03:00 +22°C° 0.1 mm 3 mps 731 mmHg 65%
    04:00 +21°C° 0.1 mm 3 mps 731 mmHg 70%
    05:00 +22°C° 0.7 mm 3 mps 731 mmHg 72%
    06:00 +25°C° 0.7 mm 4 mps 731 mmHg 73%
    07:00 +26°C° 0.7 mm 4 mps 731 mmHg 74%
    08:00 +26°C° 0.8 mm 4 mps 731 mmHg 72%
    09:00 +27°C° 0.8 mm 4 mps 731 mmHg 69%
    10:00 +27°C° 0.8 mm 4 mps 731 mmHg 67%
    11:00 +28°C° 0.9 mm 4 mps 731 mmHg 65%
    12:00 +28°C° 0.9 mm 4 mps 731 mmHg 64%
    13:00 +28°C° 0.9 mm 4 mps 731 mmHg 62%
    14:00 +28°C° 0.9 mm 4 mps 731 mmHg 62%
    15:00 +28°C° 0.9 mm 3 mps 731 mmHg 61%
    16:00 +28°C° 0.9 mm 3 mps 731 mmHg 61%
    17:00 +26°C° 0.3 mm 2 mps 731 mmHg 66%
    18:00 +25°C° 0.3 mm 2 mps 731 mmHg 71%
    19:00 +23°C° 0.3 mm 1 mps 732 mmHg 76%
    20:00 +21°C° 0.1 mm 2 mps 732 mmHg 79%
    21:00 +20°C° 0.1 mm 2 mps 732 mmHg 82%
    22:00 +20°C° 0.1 mm 2 mps 733 mmHg 84%
    23:00 +19°C° 0.3 mm 2 mps 733 mmHg 85%

    26 July, Wednesday

    Time Temperature Precipitation Wind Pressure Humidity
    00:00 +19°C° 0.3 mm 2 mps 733 mmHg 85%
    01:00 +19°C° 0.3 mm 2 mps 733 mmHg 86%
    02:00 +19°C° 0.1 mm 2 mps 733 mmHg 86%
    03:00 +18°C° 0.1 mm 2 mps 732 mmHg 86%
    04:00 +18°C° 0.1 mm 2 mps 732 mmHg 87%
    05:00 +20°C° 0 mm 2 mps 732 mmHg 82%
    06:00 +21°C° 0 mm 2 mps 732 mmHg 77%
    07:00 +24°C° 0 mm 2 mps 732 mmHg 72%
    08:00 +25°C° 0.3 mm 2 mps 732 mmHg 67%
    09:00 +26°C° 0.3 mm 2 mps 732 mmHg 62%
    10:00 +27°C° 0.3 mm 2 mps 732 mmHg 57%
    11:00 +28°C° 0.8 mm 2 mps 732 mmHg 58%
    12:00 +28°C° 0.8 mm 2 mps 732 mmHg 59%
    13:00 +28°C° 0.8 mm 3 mps 732 mmHg 60%
    14:00 +28°C° 1.3 mm 2 mps 732 mmHg 61%
    15:00 +27°C° 1.3 mm 2 mps 732 mmHg 62%
    16:00 +27°C° 1.3 mm 2 mps 732 mmHg 63%
    17:00 +25°C° 0.9 mm 2 mps 732 mmHg 68%
    18:00 +24°C° 0.9 mm 1 mps 732 mmHg 73%
    19:00 +22°C° 0.9 mm 1 mps 732 mmHg 78%
    20:00 +22°C° 0.4 mm 1 mps 733 mmHg 80%
    21:00 +21°C° 0.4 mm 1 mps 733 mmHg 83%
    22:00 +20°C° 0.4 mm 1 mps 733 mmHg 85%
    23:00 +20°C° 0.7 mm 1 mps 733 mmHg 86%

    27 July, Thursday

    Time Temperature Precipitation Wind Pressure Humidity
    00:00 +20°C° 0.7 mm 1 mps 733 mmHg 87%
    01:00 +20°C° 0.7 mm 1 mps 733 mmHg 88%
    02:00 +18°C° 0.9 mm 2 mps 733 mmHg 88%
    03:00 +18°C° 0.9 mm 2 mps 733 mmHg 89%
    04:00 +18°C° 0.9 mm 2 mps 733 mmHg 89%
    05:00 +19°C° 0.5 mm 2 mps 733 mmHg 86%
    06:00 +20°C° 0.5 mm 2 mps 733 mmHg 83%
    07:00 +21°C° 0.5 mm 2 mps 734 mmHg 80%
    08:00 +23°C° 0.3 mm 2 mps 734 mmHg 73%
    09:00 +24°C° 0.3 mm 2 mps 734 mmHg 67%
    10:00 +25°C° 0.3 mm 2 mps 734 mmHg 61%
    11:00 +26°C° 0.3 mm 3 mps 734 mmHg 58%
    12:00 +27°C° 0.3 mm 3 mps 734 mmHg 55%
    13:00 +28°C° 0.3 mm 4 mps 734 mmHg 52%
    14:00 +27°C° 0.4 mm 4 mps 734 mmHg 53%
    15:00 +27°C° 0.4 mm 4 mps 734 mmHg 55%
    16:00 +27°C° 0.4 mm 4 mps 734 mmHg 56%
    17:00 +26°C° 0.4 mm 4 mps 734 mmHg 61%
    18:00 +24°C° 0.4 mm 3 mps 735 mmHg 66%
    19:00 +22°C° 0.4 mm 3 mps 735 mmHg 71%
    20:00 +21°C° 0 mm 3 mps 736 mmHg 72%
    21:00 +20°C° 0 mm 3 mps 736 mmHg 74%
    22:00 +19°C° 0 mm 3 mps 736 mmHg 76%
    23:00 +19°C° 0 mm 3 mps 736 mmHg 76%

    28 July, Friday

    Time Temperature Precipitation Wind Pressure Humidity
    00:00 +18°C° 0 mm 3 mps 737 mmHg 75%
    01:00 +18°C° 0 mm 3 mps 737 mmHg 75%
    02:00 +18°C° 0 mm 3 mps 737 mmHg 75%
    03:00 +18°C° 0 mm 3 mps 737 mmHg 75%
    04:00 +18°C° 0 mm 3 mps 737 mmHg 74%
    05:00 +19°C° 0 mm 3 mps 738 mmHg 70%
    06:00 +21°C° 0 mm 3 mps 738 mmHg 65%
    07:00 +24°C° 0 mm 3 mps 738 mmHg 60%
    08:00 +26°C° 0 mm 2 mps 738 mmHg 54%
    09:00 +27°C° 0 mm 2 mps 738 mmHg 48%
    10:00 +29°C° 0 mm 2 mps 739 mmHg 41%
    11:00 +30°C° 0 mm 3 mps 739 mmHg 39%
    12:00 +31°C° 0 mm 3 mps 739 mmHg 37%
    13:00 +32°C° 0 mm 4 mps 739 mmHg 35%
    14:00 +32°C° 0 mm 4 mps 739 mmHg 37%
    15:00 +32°C° 0 mm 4 mps 739 mmHg 38%
    16:00 +32°C° 0 mm 4 mps 739 mmHg 39%
    17:00 +29°C° 0 mm 3 mps 739 mmHg 46%
    18:00 +26°C° 0 mm 3 mps 739 mmHg 54%
    19:00 +24°C° 0 mm 2 mps 740 mmHg 61%
    20:00 +24°C° 0 mm 2 mps 740 mmHg 61%
    21:00 +23°C° 0 mm 2 mps 740 mmHg 61%
    22:00 +21°C° 0 mm 2 mps 741 mmHg 62%
    23:00 +21°C° 0 mm 2 mps 741 mmHg 62%
    Show more